Time,TemperatureF,DewpointF,PressureIn,WindDirection,WindDirectionDegrees,WindSpeedMPH,WindSpeedGustMPH,Humidity,HourlyPrecipIn,Conditions,Clouds,dailyrainin,SoftwareType,DateUTC
2013-09-04 00:02:00,63.8,58.0,29.92,ESE,121,4.0,8.0,81,0.00,,,0.00,weatherlink.com 1.10,2013-09-04 07:02:00,
2013-09-04 00:17:00,63.3,58.0,29.92,ESE,102,0.0,5.0,82,0.00,,,0.00,weatherlink.com 1.10,2013-09-04 07:17:00,
2013-09-04 00:33:00,62.9,58.0,29.92,SE,135,2.0,5.0,83,0.00,,,0.00,weatherlink.com 1.10,2013-09-04 07:33:00,
2013-09-04 00:48:00,62.8,58.0,29.92,SE,144,0.0,4.0,83,0.00,,,0.00,weatherlink.com 1.10,2013-09-04 07:48:00,
2013-09-04 01:03:00,62.2,57.0,29.92,ESE,116,1.0,5.0,84,0.00,,,0.00,weatherlink.com 1.10,2013-09-04 08:03:00,
2013-09-04 01:18:00,62.0,58.0,29.93,ESE,117,0.0,4.0,85,0.00,,,0.00,weatherlink.com 1.10,2013-09-04 08:18:00,
2013-09-04 01:33:00,61.7,57.0,29.92,SSE,148,2.0,5.0,85,0.00,,,0.00,weatherlink.com 1.10,2013-09-04 08:33:00,
2013-09-04 01:48:00,61.8,57.0,29.92,South,174,2.0,5.0,84,0.00,,,0.00,weatherlink.com 1.10,2013-09-04 08:48:00,
2013-09-04 02:03:00,61.6,57.0,29.92,SSE,159,0.0,4.0,85,0.00,,,0.00,weatherlink.com 1.10,2013-09-04 09:03:00,
2013-09-04 02:18:00,61.4,57.0,29.93,SSE,161,1.0,5.0,86,0.00,,,0.00,weatherlink.com 1.10,2013-09-04 09:18:00,
2013-09-04 02:33:00,61.1,57.0,29.93,ESE,123,3.0,4.0,87,0.00,,,0.00,weatherlink.com 1.10,2013-09-04 09:33:00,
2013-09-04 02:48:00,61.0,57.0,29.93,ESE,117,0.0,4.0,87,0.00,,,0.00,weatherlink.com 1.10,2013-09-04 09:48:00,
2013-09-04 03:03:00,60.8,57.0,29.94,ESE,111,2.0,5.0,87,0.00,,,0.00,weatherlink.com 1.10,2013-09-04 10:03:00,
2013-09-04 03:18:00,60.8,57.0,29.94,SE,140,3.0,5.0,87,0.00,,,0.00,weatherlink.com 1.10,2013-09-04 10:18:00,
2013-09-04 03:33:00,61.0,57.0,29.94,SE,130,3.0,5.0,87,0.00,,,0.00,weatherlink.com 1.10,2013-09-04 10:33:00,
2013-09-04 03:48:00,61.0,57.0,29.94,SSE,165,2.0,6.0,87,0.00,,,0.00,weatherlink.com 1.10,2013-09-04 10:48:00,
2013-09-04 04:03:00,60.9,57.0,29.94,SSE,168,3.0,5.0,87,0.00,,,0.00,weatherlink.com 1.10,2013-09-04 11:03:00,
2013-09-04 04:18:00,60.7,57.0,29.94,SSE,148,1.0,4.0,88,0.00,,,0.00,weatherlink.com 1.10,2013-09-04 11:18:00,
2013-09-04 04:33:00,60.3,57.0,29.93,South,171,1.0,4.0,88,0.00,,,0.00,weatherlink.com 1.10,2013-09-04 11:33:00,
2013-09-04 04:48:00,59.9,57.0,29.94,ESE,116,2.0,4.0,90,0.00,,,0.00,weatherlink.com 1.10,2013-09-04 11:48:00,
2013-09-04 05:03:00,60.0,57.0,29.94,SSE,167,0.0,4.0,89,0.00,,,0.00,weatherlink.com 1.10,2013-09-04 12:03:00,
2013-09-04 05:18:00,60.1,57.0,29.94,SSE,155,0.0,4.0,89,0.00,,,0.00,weatherlink.com 1.10,2013-09-04 12:18:00,
2013-09-04 05:33:00,60.0,57.0,29.94,South,177,2.0,5.0,88,0.00,,,0.00,weatherlink.com 1.10,2013-09-04 12:33:00,
2013-09-04 05:48:00,59.9,57.0,29.94,South,170,2.0,5.0,89,0.00,,,0.00,weatherlink.com 1.10,2013-09-04 12:48:00,
2013-09-04 06:03:00,59.7,57.0,29.95,SSE,159,1.0,4.0,90,0.00,,,0.00,weatherlink.com 1.10,2013-09-04 13:03:00,
2013-09-04 06:18:00,59.8,57.0,29.95,South,179,2.0,4.0,89,0.00,,,0.00,weatherlink.com 1.10,2013-09-04 13:18:00,
2013-09-04 06:33:00,59.6,56.0,29.95,SSE,166,4.0,5.0,89,0.00,,,0.00,weatherlink.com 1.10,2013-09-04 13:33:00,
2013-09-04 06:48:00,59.5,57.0,29.96,South,180,3.0,6.0,90,0.00,,,0.00,weatherlink.com 1.10,2013-09-04 13:48:00,
2013-09-04 07:03:00,59.4,57.0,29.97,SSE,163,2.0,4.0,90,0.00,,,0.00,weatherlink.com 1.10,2013-09-04 14:03:00,
2013-09-04 07:18:00,59.9,57.0,29.97,SSE,159,4.0,7.0,90,0.00,,,0.00,weatherlink.com 1.10,2013-09-04 14:18:00,
2013-09-04 07:33:00,61.2,58.0,29.97,South,183,1.0,6.0,89,0.00,,,0.00,weatherlink.com 1.10,2013-09-04 14:33:00,
2013-09-04 07:48:00,62.2,58.0,29.98,South,176,4.0,7.0,87,0.00,,,0.00,weatherlink.com 1.10,2013-09-04 14:48:00,
2013-09-04 08:04:00,63.1,59.0,29.98,SW,214,4.0,8.0,85,0.00,,,0.00,weatherlink.com 1.10,2013-09-04 15:04:00,
2013-09-04 08:19:00,64.0,59.0,29.98,SSW,209,5.0,7.0,84,0.00,,,0.00,weatherlink.com 1.10,2013-09-04 15:19:00,
2013-09-04 08:34:00,65.1,59.0,29.98,SSW,202,5.0,9.0,81,0.00,,,0.00,weatherlink.com 1.10,2013-09-04 15:34:00,
2013-09-04 08:49:00,66.2,60.0,29.98,SW,217,4.0,8.0,80,0.00,,,0.00,weatherlink.com 1.10,2013-09-04 15:49:00,
2013-09-04 09:04:00,66.8,59.0,29.99,SSW,204,3.0,10.0,77,0.00,,,0.00,weatherlink.com 1.10,2013-09-04 16:04:00,
2013-09-04 09:19:00,67.9,60.0,29.99,WSW,240,3.0,9.0,75,0.00,,,0.00,weatherlink.com 1.10,2013-09-04 16:19:00,
2013-09-04 09:34:00,68.8,60.0,29.99,SSW,198,2.0,8.0,74,0.00,,,0.00,weatherlink.com 1.10,2013-09-04 16:34:00,
2013-09-04 09:49:00,70.0,59.0,29.99,SSW,207,4.0,8.0,69,0.00,,,0.00,weatherlink.com 1.10,2013-09-04 16:49:00,
2013-09-04 10:04:00,70.8,60.0,30.00,SW,223,4.0,8.0,68,0.00,,,0.00,weatherlink.com 1.10,2013-09-04 17:04:00,
2013-09-04 10:19:00,71.7,59.0,29.99,South,171,2.0,7.0,65,0.00,,,0.00,weatherlink.com 1.10,2013-09-04 17:19:00,
2013-09-04 10:34:00,73.1,59.0,29.99,SSW,207,1.0,6.0,61,0.00,,,0.00,weatherlink.com 1.10,2013-09-04 17:34:00,
2013-09-04 10:49:00,74.0,60.0,29.99,South,188,3.0,6.0,61,0.00,,,0.00,weatherlink.com 1.10,2013-09-04 17:49:00,
2013-09-04 11:04:00,74.8,59.0,29.99,SSW,211,0.0,7.0,58,0.00,,,0.00,weatherlink.com 1.10,2013-09-04 18:04:00,
2013-09-04 11:19:00,75.1,59.0,29.98,SW,227,0.0,7.0,57,0.00,,,0.00,weatherlink.com 1.10,2013-09-04 18:19:00,
2013-09-04 11:35:00,76.2,60.0,29.98,South,173,1.0,7.0,57,0.00,,,0.00,weatherlink.com 1.10,2013-09-04 18:35:00,
2013-09-04 11:50:00,77.1,60.0,29.98,West,271,3.0,7.0,55,0.00,,,0.00,weatherlink.com 1.10,2013-09-04 18:50:00,
2013-09-04 12:05:00,77.9,59.0,29.97,SSW,196,5.0,8.0,53,0.00,,,0.00,weatherlink.com 1.10,2013-09-04 19:05:00,
2013-09-04 12:20:00,78.5,60.0,29.97,SW,216,2.0,8.0,53,0.00,,,0.00,weatherlink.com 1.10,2013-09-04 19:20:00,
2013-09-04 12:35:00,79.4,60.0,29.96,SW,222,1.0,10.0,52,0.00,,,0.00,weatherlink.com 1.10,2013-09-04 19:35:00,
2013-09-04 12:50:00,79.9,58.0,29.96,WSW,238,4.0,11.0,47,0.00,,,0.00,weatherlink.com 1.10,2013-09-04 19:50:00,
2013-09-04 13:05:00,80.1,57.0,29.95,West,264,3.0,12.0,46,0.00,,,0.00,weatherlink.com 1.10,2013-09-04 20:05:00,
2013-09-04 13:20:00,81.1,58.0,29.95,SSW,209,5.0,8.0,46,0.00,,,0.00,weatherlink.com 1.10,2013-09-04 20:20:00,
2013-09-04 13:35:00,82.0,57.0,29.95,South,191,4.0,10.0,43,0.00,,,0.00,weatherlink.com 1.10,2013-09-04 20:35:00,
2013-09-04 14:05:00,83.3,57.0,29.94,WSW,256,4.0,8.0,40,0.00,,,0.00,weatherlink.com 1.10,2013-09-04 21:05:00,
2013-09-04 14:20:00,83.5,57.0,29.94,SSW,192,3.0,9.0,41,0.00,,,0.00,weatherlink.com 1.10,2013-09-04 21:20:00,
2013-09-04 14:35:00,84.1,54.0,29.93,West,281,4.0,10.0,36,0.00,,,0.00,weatherlink.com 1.10,2013-09-04 21:35:00,
2013-09-04 14:50:00,84.7,56.0,29.93,SSW,200,6.0,10.0,37,0.00,,,0.00,weatherlink.com 1.10,2013-09-04 21:50:00,
2013-09-04 15:05:00,85.2,54.0,29.92,SSW,196,2.0,10.0,34,0.00,,,0.00,weatherlink.com 1.10,2013-09-04 22:05:00,
2013-09-04 15:20:00,86.1,53.0,29.92,WSW,239,3.0,9.0,32,0.00,,,0.00,weatherlink.com 1.10,2013-09-04 22:20:00,
2013-09-04 15:35:00,86.3,54.0,29.91,SW,236,2.0,9.0,33,0.00,,,0.00,weatherlink.com 1.10,2013-09-04 22:35:00,
2013-09-04 15:50:00,86.8,54.0,29.90,WSW,248,4.0,9.0,32,0.00,,,0.00,weatherlink.com 1.10,2013-09-04 22:50:00,
2013-09-04 16:06:00,86.5,52.0,29.89,WSW,242,4.0,10.0,31,0.00,,,0.00,weatherlink.com 1.10,2013-09-04 23:06:00,
2013-09-04 16:21:00,86.6,53.0,29.89,WSW,239,8.0,9.0,31,0.00,,,0.00,weatherlink.com 1.10,2013-09-04 23:21:00,
2013-09-04 16:36:00,86.3,56.0,29.89,SW,222,5.0,11.0,35,0.00,,,0.00,weatherlink.com 1.10,2013-09-04 23:36:00,
2013-09-04 16:51:00,85.9,55.0,29.88,SW,229,3.0,11.0,35,0.00,,,0.00,weatherlink.com 1.10,2013-09-04 23:51:00,
2013-09-04 17:06:00,85.6,55.0,29.88,SSW,207,6.0,11.0,35,0.00,,,0.00,weatherlink.com 1.10,2013-09-05 00:06:00,
2013-09-04 17:21:00,85.2,56.0,29.88,SW,217,11.0,13.0,37,0.00,,,0.00,weatherlink.com 1.10,2013-09-05 00:21:00,
2013-09-04 17:36:00,84.1,56.0,29.88,SSW,205,10.0,14.0,38,0.00,,,0.00,weatherlink.com 1.10,2013-09-05 00:36:00,
2013-09-04 17:51:00,83.0,56.0,29.87,SW,228,8.0,14.0,40,0.00,,,0.00,weatherlink.com 1.10,2013-09-05 00:51:00,
2013-09-04 18:06:00,82.1,57.0,29.87,WSW,240,5.0,13.0,42,0.00,,,0.00,weatherlink.com 1.10,2013-09-05 01:06:00,
2013-09-04 18:21:00,80.6,56.0,29.87,SSW,207,10.0,14.0,43,0.00,,,0.00,weatherlink.com 1.10,2013-09-05 01:21:00,
2013-09-04 18:36:00,79.1,56.0,29.88,SSW,195,8.0,15.0,45,0.00,,,0.00,weatherlink.com 1.10,2013-09-05 01:36:00,
2013-09-04 18:51:00,77.9,55.0,29.88,WSW,238,8.0,15.0,45,0.00,,,0.00,weatherlink.com 1.10,2013-09-05 01:51:00,
2013-09-04 19:06:00,76.7,55.0,29.88,SSW,205,10.0,11.0,47,0.00,,,0.00,weatherlink.com 1.10,2013-09-05 02:06:00,
2013-09-04 19:21:00,75.3,54.0,29.88,South,191,8.0,13.0,48,0.00,,,0.00,weatherlink.com 1.10,2013-09-05 02:21:00,
2013-09-04 19:36:00,73.9,55.0,29.88,SSW,196,6.0,10.0,51,0.00,,,0.00,weatherlink.com 1.10,2013-09-05 02:36:00,
2013-09-04 19:51:00,72.8,54.0,29.88,SW,216,6.0,14.0,51,0.00,,,0.00,weatherlink.com 1.10,2013-09-05 02:51:00,
2013-09-04 20:06:00,71.9,54.0,29.89,SW,218,4.0,11.0,53,0.00,,,0.00,weatherlink.com 1.10,2013-09-05 03:06:00,
2013-09-04 20:21:00,71.1,54.0,29.89,SSW,209,8.0,10.0,55,0.00,,,0.00,weatherlink.com 1.10,2013-09-05 03:21:00,
2013-09-04 20:37:00,70.3,55.0,29.89,South,189,3.0,11.0,58,0.00,,,0.00,weatherlink.com 1.10,2013-09-05 03:37:00,
2013-09-04 20:51:00,69.6,54.0,29.89,SW,217,6.0,9.0,59,0.00,,,0.00,weatherlink.com 1.10,2013-09-05 03:51:00,
2013-09-04 21:06:00,69.1,55.0,29.89,South,175,6.0,11.0,61,0.00,,,0.00,weatherlink.com 1.10,2013-09-05 04:06:00,
2013-09-04 21:21:00,68.7,55.0,29.89,SSW,210,5.0,9.0,63,0.00,,,0.00,weatherlink.com 1.10,2013-09-05 04:21:00,
2013-09-04 21:36:00,68.0,56.0,29.90,South,180,4.0,7.0,66,0.00,,,0.00,weatherlink.com 1.10,2013-09-05 04:36:00,
2013-09-04 21:51:00,67.9,56.0,29.90,SSE,151,5.0,13.0,66,0.00,,,0.00,weatherlink.com 1.10,2013-09-05 04:51:00,
2013-09-04 22:06:00,67.5,56.0,29.90,South,173,4.0,12.0,66,0.00,,,0.00,weatherlink.com 1.10,2013-09-05 05:06:00,
2013-09-04 22:21:00,67.2,55.0,29.90,SSE,148,5.0,10.0,66,0.00,,,0.00,weatherlink.com 1.10,2013-09-05 05:21:00,
2013-09-04 22:36:00,66.9,56.0,29.91,SSW,208,4.0,10.0,68,0.00,,,0.00,weatherlink.com 1.10,2013-09-05 05:36:00,
2013-09-04 22:51:00,66.6,57.0,29.91,South,184,8.0,12.0,71,0.00,,,0.00,weatherlink.com 1.10,2013-09-05 05:51:00,
2013-09-04 23:06:00,66.3,57.0,29.91,South,187,7.0,15.0,72,0.00,,,0.00,weatherlink.com 1.10,2013-09-05 06:06:00,
2013-09-04 23:21:00,65.9,57.0,29.91,South,176,3.0,10.0,73,0.00,,,0.00,weatherlink.com 1.10,2013-09-05 06:21:00,
2013-09-04 23:36:00,65.4,57.0,29.91,SSW,192,5.0,11.0,75,0.00,,,0.00,weatherlink.com 1.10,2013-09-05 06:36:00,
2013-09-04 23:51:00,65.0,57.0,29.91,South,178,3.0,8.0,75,0.00,,,0.00,weatherlink.com 1.10,2013-09-05 06:51:00,